Grapevine, CA Past Weather

Last 30 Days

 
High: 56ºf @11:13 AM    Low: 42ºf @7:13 PM     Approx. Precipitation / Rain Total: in.
Time (PST)Temp. (ºf)Humidity (%)Dew Point (ºf)Barometer (inHG)Wind Speed (mph)Wind DirectionWind Gust (mph)1hr. Precip / Rain Total (in.)Snow Depth
11:13 PM44160.73-6.95ssw7.82--
10:13 PM45172.85-5.21s7.82--
9:13 PM444524.04-5.21s6.95--
8:13 PM44183.26-5.21s7.82--
7:13 PM42236.92-5.21s8.69--
6:13 PM424924.24-6.08s7.82--
5:13 PM454524.95-4.34s6.95--
4:13 PM49164.79-6.08s8.69--
3:13 PM50165.61-6.08ssw7.82--
2:13 PM53133.5-6.08ssw7.82--
1:13 PM54122.57-6.08ssw7.82--
12:13 PM5510-0.54-4.34sw6.95--
11:13 AM56100.23-5.21sw6.95--
10:13 AM55123.35-5.21sw6.08--
9:13 AM5510-0.54-4.34ssw5.21--
8:13 AM53133.5-3.48s5.21--
7:13 AM47185.73-5.21ssw6.08--
6:13 AM46218.28-4.34ssw6.95--
5:13 AM45228.47-6.08ssw7.82--
4:13 AM44216.61-6.95ssw8.69--
3:13 AM44216.61-6.08ssw7.82--
2:13 AM45239.46-4.34s6.08--
1:13 AM45239.46-5.21s7.82--
12:13 AM46218.28-3.48s6.08--
High: 56ºf @1:13 PM    Low: 44ºf @7:13 AM     Approx. Precipitation / Rain Total: in.
Time (PST)Temp. (ºf)Humidity (%)Dew Point (ºf)Barometer (inHG)Wind Speed (mph)Wind DirectionWind Gust (mph)1hr. Precip / Rain Total (in.)Snow Depth
11:13 PM46184.9-4.34sse7.82--
10:13 PM45184.08-5.21s8.69--
9:13 PM46196.08-6.08s8.69--
8:13 PM46184.9-4.34s10.43--
7:13 PM46196.08-5.21s9.56--
6:13 PM46196.08-5.21s7.82--
5:13 PM47185.73-5.21s8.69--
4:13 PM49164.79-5.21ssw9.56--
3:13 PM50176.93-6.95ssw9.56--
2:13 PM522315.37-5.21ssw7.82--
1:13 PM562520.69-3.48ssw8.69--
12:13 PM552620.76-6.08nne13.03--
11:13 AM532215.19-9.56nne14.77--
10:13 AM532316.21-7.82n12.17--
9:13 AM502313.68-6.95nnw12.17--
8:13 AM462310.3-10.43nnw13.9--
7:13 AM44249.56-11.3nnw16.51--
6:13 AM442510.47-9.56nnw13.9--
5:13 AM442611.35-9.56nnw12.17--
4:13 AM462713.92-5.21nw11.3--
3:13 AM452511.32-4.34nnw8.69--
1:13 AM44249.56-7.82nnw10.43--
12:13 AM44249.56-7.82nnw13.03--
High: 53ºf @2:13 PM    Low: 35ºf @6:13 AM     Approx. Precipitation / Rain Total: in.
Time (PST)Temp. (ºf)Humidity (%)Dew Point (ºf)Barometer (inHG)Wind Speed (mph)Wind DirectionWind Gust (mph)1hr. Precip / Rain Total (in.)Snow Depth
11:13 PM44249.56-9.56nnw15.64--
10:13 PM432610.49-12.17nnw16.51--
9:13 PM432912.94-8.69nnw14.77--
8:13 PM422912.08-12.17nnw17.38--
7:13 PM442712.19-11.3nnw13.9--
6:13 PM442611.35-8.69n13.03--
5:13 PM48208.87-8.69nw13.9--
4:13 PM522012.19-5.21wnw10.43--
3:13 PM52189.83-5.21wnw19.12--
2:13 PM532013.02-13.03n25.2--
1:13 PM522012.19-14.77n25.2--
12:13 PM492716.49-15.64nne21.72--
11:13 AM466434.51-15.64n22.59--
10:13 AM4510045-9.56n14.77--
9:13 AM4210042-8.69n13.03--
8:13 AM3910039-8.69-12.17--
7:13 AM3510035-7.82n12.17--
6:13 AM3510035-8.69n13.03--
5:13 AM3510035-9.56-14.77--
4:13 AM3610036-11.3nnw13.9--
3:13 AM4110041-6.95w8.69--
2:13 AM3910039-4.34ssw6.95--
1:13 AM3710037-4.34se10.43--
12:13 AM3710037-8.69sse14.77--
High: 51ºf @2:13 PM    Low: 37ºf @7:13 AM     Approx. Precipitation / Rain Total: in.
Time (PST)Temp. (ºf)Humidity (%)Dew Point (ºf)Barometer (inHG)Wind Speed (mph)Wind DirectionWind Gust (mph)1hr. Precip / Rain Total (in.)Snow Depth
11:13 PM3910039-1.74wnw3.48--
10:13 PM4010040-3.48ssw6.08--
9:13 PM3710037-5.21se9.56--
8:13 PM4010040-2.61s6.95--
7:13 PM4310043-2.61se8.69--
6:13 PM4410044-4.34s10.43--
5:13 PM4510045-6.08sw10.43--
4:13 PM4410044-3.48nw10.43--
3:13 PM4510045-5.21wnw10.43--
2:13 PM5110051-2.61nne6.95--
1:13 PM5010050-2.61n9.56--
12:13 PM4310043-6.08sw9.56--
11:13 AM4410044-4.34ssw10.43--
10:13 AM4110041-6.95ssw11.3--
9:13 AM3910039-5.21s18.25--
8:13 AM3810038-14.77sw19.99--
7:13 AM379535.7-6.08ssw11.3--
6:13 AM3810038-6.08s13.03--
5:13 AM396628.62-6.95s10.43--
4:13 AM415224.74-8.69ssw10.43--
3:13 AM453921.55-7.82ssw9.56--
2:13 AM463922.45-5.21s9.56--
1:13 AM444825.59-7.82ssw10.43--
12:13 AM464023.05-5.21s8.69--
High: 59ºf @2:13 PM    Low: 46ºf @7:13 AM     Approx. Precipitation / Rain Total: in.
Time (PST)Temp. (ºf)Humidity (%)Dew Point (ºf)Barometer (inHG)Wind Speed (mph)Wind DirectionWind Gust (mph)1hr. Precip / Rain Total (in.)Snow Depth
11:13 PM473822.73-4.34s7.82--
10:13 PM483622.33-4.34s8.69--
9:13 PM473923.34-6.08s7.82--
8:13 PM483622.33-4.34s9.56--
7:13 PM473923.34-6.08ssw8.69--
6:13 PM493623.22-3.48sse6.95--
5:13 PM513423.63-3.48sse6.08--
4:13 PM562419.73-3.48s6.08--
3:13 PM581814.75-2.61sw6.95--
2:13 PM593027.61-4.34n9.56--
1:13 PM582623.32-7.82nne13.03--
12:13 PM562722.5-10.43n17.38--
11:13 AM542821.64-13.03n19.12--
10:13 AM523525.21-13.9n19.12--
9:13 AM507040.61-15.64n20.86--
8:13 AM499748.19-13.9n17.38--
7:13 AM469745.2-13.9n16.51--
6:13 AM469945.73-12.17n14.77--
5:13 AM4610046-11.3nnw14.77--
4:13 AM479946.73-13.03nnw16.51--
3:13 AM4710047-12.17n15.64--
2:13 AM4810048-13.03nnw15.64--
1:13 AM4910049-10.43nnw13.03--
12:13 AM4810048-10.43nnw13.03--
High: 51ºf @1:13 PM    Low: 37ºf @4:13 AM     Approx. Precipitation / Rain Total: in.
Time (PST)Temp. (ºf)Humidity (%)Dew Point (ºf)Barometer (inHG)Wind Speed (mph)Wind DirectionWind Gust (mph)1hr. Precip / Rain Total (in.)Snow Depth
11:13 PM4910049-10.43nnw13.03--
10:13 PM4910049-11.3nnw12.17--
9:13 PM4810048-9.56nnw11.3--
7:13 PM4510045-3.48nnw6.95--
6:13 PM4610046-5.21n7.82--
5:13 PM4610046-5.21n7.82--
4:13 PM4910049-2.61nne5.21--
3:13 PM4910049-3.48nne6.08--
2:13 PM5010050-4.34n6.95--
1:13 PM5110051-3.48nne8.69--
12:13 PM5110051-4.34nne10.43--
11:13 AM4810048-2.61ssw9.56--
10:13 AM45---6.95ssw9.56--
9:13 AM44---7.82sw9.56--
8:13 AM43---7.82ssw8.69--
7:13 AM40---5.21s6.95--
6:13 AM401-53.11-5.21s8.69--
5:13 AM392-42.38-6.08ssw9.56--
4:13 AM373813.78-6.08ssw9.56--
3:13 AM388-18.03-6.95ssw12.17--
2:13 AM382-43.04-6.08ssw9.56--
1:13 AM3910039-6.95ssw8.69--
12:13 AM4010040-4.34s9.56--
High: 47ºf @2:13 PM    Low: 39ºf @4:13 AM     Approx. Precipitation / Rain Total: in.
Time (PST)Temp. (ºf)Humidity (%)Dew Point (ºf)Barometer (inHG)Wind Speed (mph)Wind DirectionWind Gust (mph)1hr. Precip / Rain Total (in.)Snow Depth
11:13 PM404821.91-6.95ssw8.69--
10:13 PM409939.74-6.08sw9.56--
9:13 PM409137.59-7.82ssw12.17--
8:13 PM4210042-4.34s10.43--
7:13 PM4010040-5.21s11.3--
6:13 PM4110041-6.08s11.3--
5:13 PM4110041-7.82ssw12.17--
4:13 PM4210042-6.08s10.43--
3:13 PM4310043-6.95ssw11.3--
2:13 PM473923.34-5.21s11.3--
1:13 PM453921.55-7.82ssw10.43--
12:13 PM453317.65-6.08ssw10.43--
11:13 AM453015.45-6.95ssw9.56--
10:13 AM47219.12-5.21ssw7.82--
9:13 AM447436.25-5.21ssw8.69--
8:13 AM439240.84-5.21ssw7.82--
7:13 AM4015-3.87-6.08ssw7.82--
6:13 AM39277.89-3.48s6.95--
5:13 AM399938.74-3.48s6.95--
4:13 AM3910039-6.08ssw6.95--
3:13 AM40---5.21ssw6.95--
2:13 AM4110041-4.34s6.08--
1:13 AM433013.71-3.48s6.08--
12:13 AM43226.79-4.34s6.95--
High: 50ºf @1:13 PM    Low: 40ºf @9:13 PM     Approx. Precipitation / Rain Total: in.
Time (PST)Temp. (ºf)Humidity (%)Dew Point (ºf)Barometer (inHG)Wind Speed (mph)Wind DirectionWind Gust (mph)1hr. Precip / Rain Total (in.)Snow Depth
11:13 PM4310043-4.34s6.08--
10:13 PM423-33.33-3.48sse5.21--
9:13 PM408836.74-5.21ssw8.69--
8:13 PM4210042-3.48s7.82--
7:13 PM4410044-4.34s8.69--
6:13 PM4510045-3.48ssw6.95--
5:13 PM4510045-3.48s6.95--
4:13 PM4510045-3.48s12.17--
3:13 PM479846.46-4.34sse7.82--
2:13 PM5010050-2.61ene6.95--
1:13 PM5010050-4.34nne8.69--
12:13 PM5010050-6.95n9.56--
11:13 AM5010050-7.82n12.17--
10:13 AM4910049-7.82n12.17--
9:13 AM4810048-2.61nne4.34--
8:13 AM4810048-2.61nne4.34--
7:13 AM4710047-3.48nne10.43--
6:13 AM4710047-7.82nne13.03--
5:13 AM475431.23-9.56n12.17--
4:13 AM484226.02-6.08n9.56--
3:13 AM483924.24-4.34n6.95--
2:13 AM484628.22-1.74nnw5.21--
1:13 AM484427.14-2.61nw6.08--
12:13 AM492413.8-3.48n7.82--
High: 54ºf @2:13 PM    Low: 43ºf @12:13 AM     Approx. Precipitation / Rain Total: in.
Time (PST)Temp. (ºf)Humidity (%)Dew Point (ºf)Barometer (inHG)Wind Speed (mph)Wind DirectionWind Gust (mph)1hr. Precip / Rain Total (in.)Snow Depth
11:13 PM482412.95-6.08n8.69--
10:13 PM492312.84-6.95n10.43--
9:13 PM482513.88-6.95n10.43--
8:13 PM482715.63-6.08n8.69--
7:13 PM482917.28-6.95n9.56--
6:13 PM483018.06-6.95n10.43--
5:13 PM493119.7-7.82n11.3--
4:13 PM503019.8-8.69n16.51--
3:13 PM522819.92-12.17n19.99--
2:13 PM542114.96-14.77nne20.86--
1:13 PM522113.3-13.9n20.86--
12:13 PM542013.85-14.77n26.07--
11:13 AM512617.34-19.99n26.07--
10:13 AM502414.65-18.25n25.2--
9:13 AM482715.63-17.38n23.46--
8:13 AM472613.92-14.77-19.99--
7:13 AM442813.02-14.77n20.86--
6:13 AM442611.35-14.77n20.86--
5:13 AM443014.58-15.64n23.46--
4:13 AM443216.06-17.38n23.46--
3:13 AM453720.31-19.12n24.33--
2:13 AM443115.33-11.3n16.51--
1:13 AM443417.46-11.3n24.33--
12:13 AM435427.51-17.38n30.41--
High: 47ºf @4:13 PM    Low: 41ºf @8:13 AM     Approx. Precipitation / Rain Total: in.
Time (PST)Temp. (ºf)Humidity (%)Dew Point (ºf)Barometer (inHG)Wind Speed (mph)Wind DirectionWind Gust (mph)1hr. Precip / Rain Total (in.)Snow Depth
11:13 PM445930.6-21.72n29.55--
10:13 PM436431.67-23.46n31.28--
9:13 PM437635.96-25.2n34.76--
8:13 PM417834.68-24.33n32.15--
7:13 PM446533-20.86n28.68--
6:13 PM446131.43-19.99n26.07--
5:13 PM445629.32-17.38nnw23.46--
4:13 PM475029.34-17.38n26.07--
3:13 PM456533.95-19.12n36.5--
2:13 PM446834.13-24.33nnw37.37--
1:13 PM455931.54-27.81n40.84--
12:13 PM455931.54-29.55nnw43.45--
11:13 AM436331.28-29.55n46.06--
10:13 AM446231.83-26.07n41.71--
8:13 AM416931.62-27.81n44.32--
7:13 AM426229.94-28.68nnw49.53--
6:13 AM436431.67-26.07nnw42.58--
5:13 AM425727.88-23.46n35.63--
4:13 AM425326.12-22.59n38.23--
3:13 AM435628.39-25.2n35.63--
2:13 AM434724.16-23.46n35.63--
1:13 AM435929.66-27.81nnw37.37--
12:13 AM445830.18-24.33n36.5--
High: 55ºf @8:13 AM    Low: 44ºf @11:13 PM     Approx. Precipitation / Rain Total: in.
Time (PST)Temp. (ºf)Humidity (%)Dew Point (ºf)Barometer (inHG)Wind Speed (mph)Wind DirectionWind Gust (mph)1hr. Precip / Rain Total (in.)Snow Depth
11:13 PM445528.88-24.33nnw41.71--
10:13 PM464726.91-26.07n39.97--
9:13 PM474023.94-20.86n33.02--
8:13 PM474426.23-23.46n38.23--
7:13 PM484024.84-26.07nnw33.89--
6:13 PM493119.7-18.25n30.41--
5:13 PM503624.11-22.59n34.76--
4:13 PM523726.54-21.72n34.76--
3:13 PM533828.08-23.46n38.23--
2:13 PM534029.33-26.94n39.1--
1:13 PM534532.23-29.55n40.84--
12:13 PM523927.82-28.68n38.23--
11:13 AM513625-26.94n36.5--
10:13 AM532619.05-19.12n25.2--
9:13 AM532215.19-12.17n16.51--
8:13 AM551913.52-2.61nnw7.82--
7:13 AM50199.39-4.34s9.56--
6:13 AM482311.99-5.21s9.56--
4:13 AM453921.55-5.21s10.43--
3:13 AM473218.69-7.82ssw10.43--
2:13 AM492312.84-5.21s7.82--
1:13 AM492413.8-6.95ssw8.69--
12:13 AM512112.46-4.34s6.95--
High: 62ºf @11:13 AM    Low: 50ºf @11:13 PM     Approx. Precipitation / Rain Total: in.
Time (PST)Temp. (ºf)Humidity (%)Dew Point (ºf)Barometer (inHG)Wind Speed (mph)Wind DirectionWind Gust (mph)1hr. Precip / Rain Total (in.)Snow Depth
11:13 PM502313.68-5.21s8.69--
10:13 PM512112.46-6.08s9.56--
9:13 PM522012.19-6.95ssw7.82--
8:13 PM531911.87-5.21ssw6.08--
7:13 PM541811.47-4.34s6.95--
6:13 PM541912.69-4.34sse7.82--
5:13 PM532114.13-6.08s8.69--
4:13 PM522113.3-5.21ssw8.69--
3:13 PM542114.96-6.08ssw9.56--
2:13 PM552216.87-5.21sw10.43--
1:13 PM581713.45-5.21s7.82--
12:13 PM611614.5-4.34sse6.08--
11:13 AM621513.84-0.87nne3.48--
10:13 AM571813.93-2.61nnw6.95--
9:13 AM552115.8-6.08n9.56--
8:13 AM541912.69-6.08n8.69--
7:13 AM531911.87-7.82n12.17--
6:13 AM541912.69-5.21n14.77--
5:13 AM522113.3-10.43n20.86--
4:13 AM522012.19-11.3n16.51--
3:13 AM522012.19-10.43n22.59--
2:13 AM512213.51-15.64n21.72--
1:13 AM502515.58-13.9n19.12--
12:13 AM512617.34-16.51n22.59--
High: 55ºf @1:13 PM    Low: 47ºf @6:13 AM     Approx. Precipitation / Rain Total: in.
Time (PST)Temp. (ºf)Humidity (%)Dew Point (ºf)Barometer (inHG)Wind Speed (mph)Wind DirectionWind Gust (mph)1hr. Precip / Rain Total (in.)Snow Depth
11:13 PM512617.34-15.64n21.72--
10:13 PM502717.35-13.9n22.59--
9:13 PM512718.21-17.38n23.46--
8:13 PM512617.34-15.64n25.2--
7:13 PM512516.43-16.51n24.33--
6:13 PM512516.43-19.99n25.2--
5:13 PM522517.28-18.25n24.33--
4:13 PM532316.21-17.38n23.46--
3:13 PM542317.05-18.25n24.33--
2:13 PM552519.84-19.12n27.81--
1:13 PM552620.76-21.72n27.81--
12:13 PM553124.93-21.72n35.63--
11:13 AM543023.28-21.72n29.55--
10:13 AM543023.28-22.59n31.28--
9:13 AM532719.93-20.86-29.55--
8:13 AM512819.06-21.72n30.41--
7:13 AM482715.63-19.12n26.94--
6:13 AM472916.41-18.25n26.07--
5:13 AM472714.78-19.12n26.94--
4:13 AM472412.1-19.99n31.28--
3:13 AM472613.92-19.12n26.94--
2:13 AM472513.03-20.86n28.68--
1:13 AM472714.78-19.99n28.68--
12:13 AM472513.03-19.12n26.94--
High: 52ºf @3:13 PM    Low: 40ºf @4:13 AM     Approx. Precipitation / Rain Total: in.
Time (PST)Temp. (ºf)Humidity (%)Dew Point (ºf)Barometer (inHG)Wind Speed (mph)Wind DirectionWind Gust (mph)1hr. Precip / Rain Total (in.)Snow Depth
11:13 PM482614.77-19.99n26.94--
10:13 PM472311.15-19.99n27.81--
9:13 PM472613.92-19.12n26.94--
8:13 PM472412.1-18.25n25.2--
7:13 PM472311.15-18.25n26.07--
6:13 PM472714.78-18.25n24.33--
5:13 PM472513.03-17.38nnw22.59--
4:13 PM512314.52-13.9n18.25--
3:13 PM522315.37-13.03n18.25--
2:13 PM522214.35-14.77n25.2--
1:13 PM52189.83-17.38n26.94--
12:13 PM502111.63-21.72n32.15--
11:13 AM492211.83-21.72n33.89--
10:13 AM482210.99-20.86n30.41--
9:13 AM472311.15-20.86n27.81--
8:13 AM442510.47-16.51n21.72--
6:13 AM412911.21-8.69n14.77--
5:13 AM402910.34-13.9nnw24.33--
4:13 AM403514.58-21.72nnw27.81--
3:13 AM413515.47-19.99n27.81--
2:13 AM41279.61-19.99n28.68--
1:13 AM423113.58-20.86n25.2--
12:13 AM412911.21-18.25nnw21.72--
High: 49ºf @2:13 PM    Low: 40ºf @7:13 AM     Approx. Precipitation / Rain Total: in.
Time (PST)Temp. (ºf)Humidity (%)Dew Point (ºf)Barometer (inHG)Wind Speed (mph)Wind DirectionWind Gust (mph)1hr. Precip / Rain Total (in.)Snow Depth
11:13 PM413011.97-16.51nnw19.12--
10:13 PM403313.25-13.03nnw19.99--
9:13 PM403413.92-15.64nnw21.72--
8:13 PM413616.12-19.12nnw22.59--
7:13 PM423315.01-15.64nnw19.99--
6:13 PM423315.01-13.9nnw16.51--
5:13 PM433617.89-11.3n15.64--
4:13 PM463217.81-13.03n18.25--
3:13 PM473017.19-13.03n22.59--
2:13 PM492918.15-15.64n25.2--
1:13 PM492817.33-19.12n26.07--
12:13 PM472916.41-18.25n25.2--
11:13 AM472815.61-18.25n25.2--
10:13 AM443216.06-19.12n25.2--
9:13 AM423617-19.12n22.59--
8:13 AM413716.75-18.25n23.46--
7:13 AM403715.85-18.25n23.46--
6:13 AM403514.58-17.38n23.46--
5:13 AM413414.81-15.64n21.72--
4:13 AM413515.47-16.51n23.46--
3:13 AM414119.12-19.12n26.07--
2:13 AM423415.69-19.12n27.81--
1:13 AM414018.55-19.12n27.81--
12:13 AM414119.12-22.59n30.41--
High: 49ºf @3:13 PM    Low: 39ºf @7:13 AM     Approx. Precipitation / Rain Total: in.
Time (PST)Temp. (ºf)Humidity (%)Dew Point (ºf)Barometer (inHG)Wind Speed (mph)Wind DirectionWind Gust (mph)1hr. Precip / Rain Total (in.)Snow Depth
11:13 PM424622.74-24.33n30.41--
10:13 PM414521.31-23.46n31.28--
9:13 PM434724.16-25.2n34.76--
8:13 PM443820.04-24.33n34.76--
7:13 PM444624.57-25.2n35.63--
6:13 PM444322.96-23.46n37.37--
5:13 PM453720.31-24.33n42.58--
4:13 PM484628.22-27.81n42.58--
3:13 PM494930.68-29.55n39.97--
2:13 PM495131.67-26.94n41.71--
1:13 PM485733.5-29.55n44.32--
12:13 PM476435.46-30.41n44.32--
11:13 AM455831.12-31.28n43.45--
10:13 AM446231.83-30.41n44.32--
9:13 AM436632.43-26.94n39.97--
8:13 AM416429.77-26.94n38.23--
7:13 AM395524.22-23.46n35.63--
6:13 AM406629.57-24.33n33.02--
5:13 AM406830.3-26.94n34.76--
4:13 AM406328.44-24.33n33.02--
3:13 AM407432.39-23.46n31.28--
2:13 AM407432.39-22.59n31.28--
1:13 AM418637.14-20.86nnw26.94--
12:13 AM409438.41-19.12n28.68--
High: 43ºf @10:13 PM    Low: 36ºf @6:13 AM     Approx. Precipitation / Rain Total: in.
Time (PST)Temp. (ºf)Humidity (%)Dew Point (ºf)Barometer (inHG)Wind Speed (mph)Wind DirectionWind Gust (mph)1hr. Precip / Rain Total (in.)Snow Depth
11:13 PM429340.12-19.99n26.07--
10:13 PM439842.47-17.38n22.59--
9:13 PM4210042-16.51n20.86--
8:13 PM4210042-15.64nnw19.99--
7:13 PM4210042-14.77n18.25--
6:13 PM4210042-12.17n15.64--
5:13 PM4110041-9.56n12.17--
4:13 PM3910039-2.61n5.21--
3:13 PM4210042-1.74s6.95--
2:13 PM3810038-5.21wsw7.82--
1:13 PM3810038-3.48wsw8.69--
12:13 PM4010040-5.21sw9.56--
11:13 AM4110041-5.21sw7.82--
10:13 AM4110041-4.34s7.82--
9:13 AM4010040-3.48s6.95--
8:13 AM3710037-3.48s7.82--
7:13 AM3610036-4.34s9.56--
6:13 AM3610036-6.08s13.03--
5:13 AM3710037-6.08s13.03--
4:13 AM3710037-7.82ssw13.03--
3:13 AM3710037-6.08s10.43--
2:13 AM3810038-6.95ssw12.17--
1:13 AM3810038-6.95ssw13.03--
12:13 AM3910039-6.08ssw11.3--
High: 53ºf @12:13 AM    Low: 37ºf @6:13 PM     Approx. Precipitation / Rain Total: in.
Time (PST)Temp. (ºf)Humidity (%)Dew Point (ºf)Barometer (inHG)Wind Speed (mph)Wind DirectionWind Gust (mph)1hr. Precip / Rain Total (in.)Snow Depth
11:13 PM3910039-6.95s13.03--
10:13 PM3810038-9.56ssw14.77--
9:13 PM4010040-4.34s11.3--
8:13 PM3910039-4.34s11.3--
7:13 PM389937.74-6.08s10.43--
6:13 PM3710037-6.95ssw11.3--
5:13 PM3810038-5.21ssw7.82--
4:13 PM3910039-2.61ssw6.95--
3:13 PM4010040-3.48ssw8.69--
2:13 PM4010040-6.08se8.69--
1:13 PM4110041-6.95ssw10.43--
12:13 PM525435.88-4.34sse6.08--
10:13 AM506036.67-3.48s7.82--
9:13 AM505735.37-3.48sse6.95--
8:13 AM495131.67-3.48s6.95--
7:13 AM475129.82-4.34s7.82--
6:13 AM475330.77-4.34sse6.95--
5:13 AM475431.23-3.48s6.95--
4:13 AM485532.61-4.34ssw6.95--
3:13 AM505333.55-5.21sw6.08--
2:13 AM514530.41-2.61sw6.08--
1:13 AM533928.71-2.61s4.34--
12:13 AM534129.94-3.48sse4.34--
High: 64ºf @2:13 PM    Low: 44ºf @12:13 AM     Approx. Precipitation / Rain Total: in.
Time (PST)Temp. (ºf)Humidity (%)Dew Point (ºf)Barometer (inHG)Wind Speed (mph)Wind DirectionWind Gust (mph)1hr. Precip / Rain Total (in.)Snow Depth
11:13 PM543728.32-2.61s6.08--
10:13 PM543728.32-3.48se7.82--
9:13 PM543728.32-5.21se6.95--
8:13 PM553527.86-5.21se7.82--
7:13 PM553427.15-1.74se6.95--
6:13 PM563327.31-6.08se7.82--
5:13 PM573227.44-5.21ese7.82--
4:13 PM612726.78-6.08ese7.82--
3:13 PM622525.78-6.08ese7.82--
2:13 PM642628.43-4.34ne8.69--
1:13 PM632829.38-6.08nne8.69--
12:13 PM642830.24-6.95n11.3--
11:13 AM622929.38-7.82nne12.17--
10:13 AM602927.66-9.56n13.9--
9:13 AM563125.8-8.69n12.17--
8:13 AM553124.93-8.69n13.9--
7:13 AM5210052-10.43nnw12.17--
6:13 AM5110051-6.08n8.69--
5:13 AM5210052-5.21nnw7.82--
4:13 AM5310053-5.21nnw7.82--
3:13 AM4910049-3.48n6.08--
2:13 AM4710047-1.74nnw5.21--
1:13 AM4510045-0.87nw6.95--
12:13 AM4410044-5.21s8.69--
High: 46ºf @12:13 PM    Low: 36ºf @7:13 AM     Approx. Precipitation / Rain Total: in.
Time (PST)Temp. (ºf)Humidity (%)Dew Point (ºf)Barometer (inHG)Wind Speed (mph)Wind DirectionWind Gust (mph)1hr. Precip / Rain Total (in.)Snow Depth
11:13 PM4310043-2.61s6.95--
10:13 PM4310043-6.08s6.95--
9:13 PM4310043-5.21s7.82--
8:13 PM4410044-3.48s9.56--
7:13 PM4410044-5.21s10.43--
6:13 PM4310043-4.34sse12.17--
5:13 PM4110041-6.95s11.3--
4:13 PM4410044-6.08s9.56--
3:13 PM4510045-4.34s11.3--
2:13 PM4510045-6.08s12.17--
1:13 PM4310043-7.82ssw16.51--
12:13 PM4610046-7.82s14.77--
11:13 AM4510045-7.82s13.03--
10:13 AM3810038-8.69ssw13.03--
9:13 AM3810038-7.82ssw13.03--
8:13 AM3710037-6.95s13.9--
7:13 AM368231.05-6.95s13.03--
6:13 AM368531.94-6.95ssw13.03--
5:13 AM366826.48-8.69ssw13.03--
4:13 AM37297.73-7.82ssw13.03--
3:13 AM379836.49-7.82ssw13.03--
2:13 AM3710037-6.95ssw11.3--
1:13 AM3710037-8.69ssw13.9--
12:13 AM417031.98-5.21sse9.56--
High: 43ºf @2:13 PM    Low: 33ºf @1:13 AM     Approx. Precipitation / Rain Total: in.
Time (PST)Temp. (ºf)Humidity (%)Dew Point (ºf)Barometer (inHG)Wind Speed (mph)Wind DirectionWind Gust (mph)1hr. Precip / Rain Total (in.)Snow Depth
11:13 PM3810038-6.08sse9.56--
10:13 PM3810038-5.21s9.56--
8:13 PM3810038-5.21ssw8.69--
7:13 PM3710037-4.34s10.43--
6:13 PM3710037-9.56ssw12.17--
5:13 PM409939.74-7.82ssw10.43--
4:13 PM4210042-4.34s13.03--
3:13 PM417935-9.56ssw12.17--
2:13 PM4310043-8.69ssw11.3--
1:13 PM4110041-7.82ssw13.03--
12:13 PM4010040-9.56ssw13.9--
11:13 AM4110041-8.69ssw13.9--
10:13 AM4010040-7.82ssw13.03--
9:13 AM3910039-7.82ssw13.03--
8:13 AM3910039-7.82ssw12.17--
7:13 AM3610036-8.69ssw15.64--
6:13 AM3610036-11.3ssw16.51--
5:13 AM359834.49-9.56ssw14.77--
4:13 AM3510035-8.69ssw15.64--
3:13 AM358731.53-4.34ssw11.3--
2:13 AM348229.09-4.34ssw11.3--
1:13 AM339932.75-7.82ssw12.17--
12:13 AM337425.63-9.56ssw12.17--
High: 53ºf @1:13 PM    Low: 34ºf @10:13 PM     Approx. Precipitation / Rain Total: in.
Time (PST)Temp. (ºf)Humidity (%)Dew Point (ºf)Barometer (inHG)Wind Speed (mph)Wind DirectionWind Gust (mph)1hr. Precip / Rain Total (in.)Snow Depth
11:13 PM367227.86-6.95ssw11.3--
10:13 PM346121.98-8.69ssw12.17--
9:13 PM355620.91-8.69ssw12.17--
8:13 PM355118.72-8.69ssw11.3--
7:13 PM365019.19-8.69ssw11.3--
6:13 PM358129.77-6.95ssw11.3--
5:13 PM366425.02-6.95ssw9.56--
4:13 PM395925.9-1.74ssw8.69--
3:13 PM423617-5.21s8.69--
2:13 PM48219.95-6.08ssw8.69--
1:13 PM5311-0.07-3.48sw6.08--
12:13 PM5310-2.08-4.34wsw5.21--
11:13 AM521911.04-2.61ne7.82--
10:13 AM512011.36-3.48n6.08--
9:13 AM49198.56-2.61nnw6.08--
8:13 AM48175.3-2.61nw7.82--
7:13 AM43193.6-2.61wnw4.34--
6:13 AM39267.06-1.74nnw5.21--
5:13 AM39299.47-2.61s6.95--
4:13 AM42181.61-6.08se8.69--
3:13 AM4513-2.84-4.34s11.3--
2:13 AM38222.58-9.56n13.9--
1:13 AM37221.73-7.82n16.51--
12:13 AM36264.48-6.95n9.56--
High: 39ºf @2:13 PM    Low: 30ºf @2:13 AM     Approx. Precipitation / Rain Total: in.
Time (PST)Temp. (ºf)Humidity (%)Dew Point (ºf)Barometer (inHG)Wind Speed (mph)Wind DirectionWind Gust (mph)1hr. Precip / Rain Total (in.)Snow Depth
11:13 PM35252.78-5.21n13.03--
10:13 PM34284.36-9.56n15.64--
9:13 PM35274.44-9.56n14.77--
8:13 PM35295.99-8.69n14.77--
7:13 PM333810.2-10.43n16.51--
6:13 PM334212.44-10.43n16.51--
5:13 PM334212.44-12.17n18.25--
4:13 PM363812.88-13.9n19.12--
3:13 PM383613.45-13.03n19.99--
2:13 PM393312.36-13.9n21.72--
1:13 PM383412.15-15.64n25.2--
12:13 PM383311.48-18.25n28.68--
11:13 AM373612.56-17.38nne26.07--
10:13 AM353610.78-17.38n26.07--
9:13 AM34359.26-15.64n21.72--
8:13 AM32378.71-14.77n24.33--
7:13 AM30398.08-18.25n25.2--
6:13 AM304310.25-19.99n28.68--
5:13 AM30429.72-19.12n27.81--
3:13 AM30429.72-19.99n30.41--
2:13 AM305013.64-24.33n31.28--
1:13 AM314914.11-22.59n34.76--
12:13 AM324814.56-22.59n33.02--
High: 34ºf @2:13 PM    Low: ºf @10:13 AM     Approx. Precipitation / Rain Total: in.
Time (PST)Temp. (ºf)Humidity (%)Dew Point (ºf)Barometer (inHG)Wind Speed (mph)Wind DirectionWind Gust (mph)1hr. Precip / Rain Total (in.)Snow Depth
11:13 PM324915.03-25.2n37.37--
10:13 PM324110.99-26.07n37.37--
9:13 PM336221.42-26.07n34.76--
8:13 PM327825.93-22.59n32.15--
7:13 PM327926.24-22.59n29.55--
6:13 PM328828.86-22.59n33.89--
5:13 PM329229.94-21.72n33.89--
4:13 PM339732.24-20.86n31.28--
3:13 PM349833.5-23.46n34.76--
2:13 PM3410034-22.59n31.28--
1:13 PM3410034-19.12n26.94--
12:13 PM3410034-19.12n26.07--
11:13 AM3310033-17.38n26.07--
10:13 AM----17.38n---
9:13 AM309528.74-13.03n17.38--
8:13 AM2910029-5.21nnw6.95--
7:13 AM2610026-2.61w6.08--
6:13 AM2610026-4.34ssw6.95--
5:13 AM2610026-2.61s6.95--
4:13 AM2610026-6.08ssw8.69--
3:13 AM2710027-4.34s6.95--
2:13 AM2810028-5.21s12.17--
1:13 AM2910029-6.95s12.17--
12:13 AM2910029-8.69ssw12.17--
High: 31ºf @7:13 PM    Low: 29ºf @11:13 PM     Approx. Precipitation / Rain Total: in.
Time (PST)Temp. (ºf)Humidity (%)Dew Point (ºf)Barometer (inHG)Wind Speed (mph)Wind DirectionWind Gust (mph)1hr. Precip / Rain Total (in.)Snow Depth
11:13 PM2910029-6.08ssw10.43--
10:13 PM3010030-6.95s13.03--
9:13 PM3010030-6.08ssw13.03--
8:13 PM3110031-7.82s15.64--
7:13 PM3110031-7.82s14.77--
6:13 PM3110031-8.69s14.77--
Past Weather Disclaimer Note regarding "Approx. Precipitation / Rain Total"

Currently

66°F
30.16in
Barometer
19%
Humidity
mph
Wind

Past Weather Nearby

More Local Information

Bookmark and Share

Go Ad Free - Become a Member